Helicity
50 40 42 63 90 96 53 36 17 40 58 77 83 92 100 100 76 76 88 140 139 108 97 107 118 119 134 161 175 158 173 180 199 201 108 133 75 71 109 94 89 76 65
64 39 42 61 82 83 43 21 41 46 50 50 48 59 65 82 97 106 127 123 131 111 115 120 110 120 124 147 168 167 164 165 188 212 61 111 51 103 148 130 97 55 48
65 45 42 48 73 93 56 59 56 56 72 79 54 46 55 68 81 104 119 120 121 116 120 140 119 117 125 145 155 155 163 145 214 231 178 102 99 137 209 166 89 61 80
79 61 59 47 65 80 71 83 94 88 69 33 22 48 72 63 68 80 92 93 122 105 109 149 116 100 124 140 157 160 173 158 216 205 126 105 133 166 111 146 119 98 118
82 90 69 49 61 69 76 88 72 42 24 11 43 63 69 99 108 102 90 90 108 119 138 121 168 83 123 139 152 169 188 144 195 193 63 123 144 182 139 172 81 113 70
94 96 74 52 61 78 74 78 57 42 21 27 52 86 102 126 147 152 143 122 112 139 149 119 120 117 156 163 153 176 187 174 193 218 93 203 190 152 93 109 88 109 43
117 101 81 73 79 84 83 74 82 74 56 33 42 71 96 137 146 137 162 142 100 148 132 134 126 145 174 178 162 172 185 189 179 158 109 190 227 114 101 90 79 78 75
94 118 112 91 83 99 89 82 78 89 78 75 33 8 54 167 127 171 161 130 111 136 182 146 145 122 148 160 182 181 197 164 224 66 208 172 218 89 135 74 56 35 31
129 109 97 101 98 101 85 78 84 111 111 95 69 38 37 110 169 178 272 281 332 221 171 150 159 131 154 159 175 200 203 186 271 50 161 191 199 77 67 52 62 35 56
84 121 117 113 102 103 103 113 131 175 174 140 106 89 115 84 110 203 215 252 326 367 305 183 157 170 166 145 112 185 198 1 245 294 154 191 155 96 149 41 42 48 31
90 75 77 92 110 122 130 140 138 156 190 184 152 114 103 98 79 115 141 198 249 244 260 281 172 159 156 137 110 180 215 18 159 263 45 132 57 128 75 72 62 38 45
77 82 111 128 139 149 167 155 135 119 156 158 161 123 110 126 86 108 116 133 161 190 185 229 208 170 158 120 114 117 152 15 89 205 71 41 58 101 66 92 55 33 80
129 124 141 151 138 160 120 79 115 151 120 154 131 109 94 109 92 105 121 123 104 120 153 172 147 163 172 113 111 97 122 149 30 202 105 38 72 100 118 91 59 50 92
151 154 125 221 168 111 107 117 140 113 94 112 113 113 113 112 98 95 102 124 126 119 104 157 120 127 158 138 117 81 159 139 30 276 219 86 167 114 128 66 63 71 75
108 93 156 108 61 58 65 72 107 72 74 64 77 95 111 107 132 119 107 124 104 121 94 93 120 78 114 146 146 139 144 24 61 182 271 284 72 128 133 119 122 114 93
143 165 108 111 87 118 87 102 91 80 66 58 36 71 75 100 98 108 103 99 94 81 106 99 123 126 109 99 124 171 145 -9 101 222 249 306 183 175 151 178 170 156 122
85 103 89 108 59 66 97 118 83 75 87 61 28 28 51 76 98 102 79 73 68 78 114 168 135 106 108 112 148 213 119 66 181 188 205 314 272 230 191 204 186 164 144
140 59 27 54 22 67 113 106 110 89 93 41 37 16 31 76 85 92 93 79 64 73 102 145 167 162 120 125 184 197 93 -3 109 208 143 98 235 240 233 198 184 150 147
121 113 22 1 20 117 78 68 85 88 85 59 63 56 36 37 46 70 87 76 61 68 88 105 171 123 177 184 211 193 170 7 204 165 202 187 232 235 219 188 176 156 154
35 82 66 132 164 117 52 70 57 128 98 121 116 127 107 91 73 67 66 66 62 55 58 142 207 213 243 176 208 114 63 218 211 224 141 186 220 236 200 191 171 150 140
88 135 131 171 205 217 83 3 44 127 92 124 110 76 69 118 86 73 69 72 52 44 60 116 191 231 237 178 161 43 121 170 321 212 269 253 248 220 194 184 160 158 137
146 134 184 205 203 145 46 32 116 128 38 43 97 108 74 70 103 83 86 53 52 46 44 135 181 215 222 172 194 174 132 222 391 212 369 412 405 416 267 173 144 156 142
135 90 218 232 215 120 69 142 202 179 166 70 50 119 99 93 113 127 106 90 89 64 79 87 140 138 170 168 219 231 170 192 392 486 584 727 531 528 433 382 220 142 127
93 191 184 205 259 220 105 164 271 268 211 182 47 34 75 99 98 66 73 80 73 60 78 87 65 69 241 204 146 147 304 449 487 610 540 686 506 557 506 482 408 248 209
127 217 215 224 250 238 175 175 263 315 279 167 188 97 49 18 38 79 41 65 129 140 147 85 -20 148 144 150 234 550 502 557 633 702 591 626 485 531 583 588 514 391 335
231 260 277 250 242 243 277 241 258 368 378 307 284 213 62 41 10 21 42 72 67 80 -6 38 174 299 382 328 379 462 456 664 466 557 595 647 505 467 461 515 489 489 418
Wind_Speed
56 61 63 64 65 62 57 61 68 64 62 62 62 63 62 62 60 60 60 61 60 60 57 55 56 56 56 57 59 56 54 53 51 44 24 26 21 18 19 24 23 28 30
55 58 63 65 65 58 60 59 64 61 60 61 60 63 65 65 64 63 61 60 64 61 59 56 54 56 56 58 59 58 58 58 54 50 33 28 25 23 23 27 26 31 34
56 55 62 64 64 63 62 64 61 59 57 62 66 66 67 68 68 67 65 61 60 60 59 58 56 52 54 56 58 59 59 61 58 51 40 34 30 30 27 23 30 33 25
53 56 59 61 62 64 66 66 54 59 64 68 72 72 70 69 70 71 68 64 62 60 59 60 56 50 49 52 55 57 58 58 60 58 40 38 36 31 25 30 30 33 26
53 53 54 61 62 62 67 60 57 61 69 73 71 71 73 75 74 71 72 70 67 63 61 58 50 51 50 50 52 55 55 54 57 59 44 39 40 31 23 26 38 36 42
52 50 55 60 58 63 66 63 63 63 68 69 73 76 75 75 73 70 70 69 67 66 61 56 56 49 52 49 47 51 53 53 55 54 48 40 40 36 34 31 39 34 54
58 57 57 58 59 62 63 68 64 67 68 67 73 76 73 74 69 65 64 64 66 66 61 55 54 53 53 53 49 47 49 50 52 54 46 43 41 44 41 39 45 43 37
70 59 59 61 61 61 65 65 65 68 62 59 66 72 68 65 52 53 49 51 60 64 62 56 54 52 54 51 49 46 48 48 50 40 46 43 42 41 39 38 43 58 46
66 67 61 59 58 57 62 67 68 60 66 60 56 58 62 59 59 50 46 41 45 55 55 49 54 53 54 53 49 46 48 49 51 44 45 48 43 37 37 45 49 57 34
73 62 62 58 59 61 63 64 59 53 52 59 57 56 55 58 57 59 51 50 48 47 48 56 58 57 58 55 47 47 49 48 51 48 46 47 47 41 42 47 68 50 45
66 66 64 59 59 57 59 59 56 52 51 54 57 53 51 55 57 63 69 61 53 49 51 52 57 54 55 56 53 51 52 50 62 59 48 49 50 43 55 43 59 55 40
64 58 50 54 57 60 56 57 63 66 61 54 53 50 49 52 55 57 63 67 65 64 58 61 58 58 61 60 57 54 53 49 64 57 52 50 48 52 53 45 64 55 38
52 53 54 58 62 56 60 71 63 58 66 61 60 54 50 59 65 59 62 68 68 63 60 59 60 57 58 62 63 56 56 58 61 64 62 52 50 53 51 59 62 51 37
44 48 39 52 58 61 59 58 62 67 63 60 60 61 59 55 61 63 67 62 64 68 61 68 62 63 60 59 61 59 59 61 62 72 65 57 52 53 56 74 55 45 39
29 28 68 41 33 25 19 36 41 49 42 47 52 55 57 65 57 62 66 65 72 74 77 68 69 62 64 62 62 61 63 67 68 81 70 59 57 56 76 67 51 42 41
30 51 53 54 44 38 36 21 13 13 21 31 51 49 61 55 49 69 72 71 74 75 73 69 72 68 60 64 63 63 67 71 78 80 70 67 59 55 86 62 47 43 40
33 58 52 41 37 31 33 28 12 1 10 8 29 49 52 48 56 68 80 82 80 75 79 68 56 59 73 68 67 67 69 74 77 79 73 76 61 60 78 58 47 43 41
41 51 44 32 34 30 23 27 17 12 12 22 37 24 48 48 54 79 82 83 82 78 76 84 66 62 70 69 70 70 71 73 80 86 76 72 61 85 67 54 46 44 42
37 40 38 27 26 26 13 22 20 18 14 21 36 52 67 78 84 85 83 84 84 81 78 78 72 61 70 74 75 74 78 86 85 84 82 76 83 75 57 51 46 43 41
37 35 38 35 34 27 27 25 27 27 24 25 33 47 65 81 86 86 88 83 82 83 79 81 77 70 71 78 79 84 84 81 87 90 94 73 81 66 52 49 45 43 41
39 35 32 51 49 50 53 49 47 42 41 38 34 36 59 79 84 83 87 89 88 86 81 83 82 78 84 90 93 90 106 93 85 83 73 73 71 63 55 48 45 43 39
43 36 35 44 50 50 42 51 43 55 51 51 54 52 66 79 93 97 95 93 93 90 88 89 89 91 92 94 95 107 103 95 83 82 68 62 65 57 53 49 45 41 38
45 38 39 41 48 48 47 43 46 51 54 57 62 66 71 81 88 90 89 91 90 85 85 89 97 96 89 99 100 113 96 86 74 73 69 57 59 51 42 37 41 38 35
45 41 43 43 49 52 46 51 57 60 55 61 67 74 79 89 93 98 95 93 92 92 95 91 89 90 85 96 118 95 88 80 66 66 62 60 55 51 38 29 27 32 30
43 45 47 50 50 54 53 56 63 71 76 76 73 73 81 86 89 99 103 103 99 94 91 92 87 83 81 99 90 88 93 86 72 66 56 64 57 49 39 29 22 18 20
50 51 50 51 50 49 51 54 68 72 71 76 74 81 78 86 95 102 102 100 102 102 102 97 87 83 89 84 76 75 86 82 71 62 59 60 59 52 48 31 21 22 17
Wind_Direction
339 336 333 328 326 327 328 325 323 320 317 313 309 305 301 295 292 290 286 283 280 277 275 274 268 264 260 254 249 249 247 246 244 246 188 182 198 184 154 132 126 124 123
340 339 335 330 327 330 328 327 324 320 315 313 309 305 300 295 291 288 285 280 276 274 273 271 269 263 258 253 248 245 242 240 241 241 168 177 194 169 150 133 133 130 127
340 340 336 333 328 328 326 322 320 319 317 313 307 304 298 292 288 284 282 281 277 273 271 267 266 264 259 254 248 244 241 238 236 239 167 164 165 155 148 143 138 136 142
343 340 336 334 329 326 323 319 322 318 314 310 305 301 296 293 287 282 279 277 276 272 268 265 262 261 260 255 250 245 242 239 235 232 167 162 159 163 157 139 143 139 176
339 338 336 334 329 326 321 322 319 316 312 309 305 301 297 291 287 282 276 273 270 268 264 262 266 256 257 256 252 245 243 240 237 232 169 165 159 162 165 146 139 140 193
339 338 334 332 329 325 320 318 316 314 312 309 304 299 296 291 286 281 275 270 266 263 262 259 257 256 253 255 253 247 243 240 238 234 170 166 160 158 149 149 142 148 193
340 335 332 331 327 324 321 316 314 311 310 308 303 299 297 290 285 280 275 268 261 260 258 255 254 252 251 251 251 249 243 239 238 231 173 166 162 152 149 147 141 187 191
336 335 332 328 326 322 319 317 314 310 309 310 303 301 294 293 290 286 278 267 258 256 257 249 249 246 248 250 249 248 240 234 235 181 173 170 159 159 153 149 149 192 194
341 336 334 331 328 326 322 317 313 307 304 305 301 299 293 285 287 282 277 273 269 257 249 248 245 246 246 245 246 243 235 229 227 183 178 169 171 172 166 150 185 193 187
339 340 337 336 331 326 322 319 315 309 306 301 300 294 286 281 278 271 270 266 267 260 253 247 244 244 240 241 240 236 230 224 217 216 181 172 165 161 156 161 191 192 189
343 341 339 337 333 330 325 320 316 309 303 299 295 293 286 277 271 265 260 258 259 254 252 249 240 238 236 235 234 231 226 221 218 217 182 173 168 156 159 165 192 191 185
349 349 347 341 336 330 328 323 315 306 301 295 290 284 279 274 265 258 254 252 251 248 249 244 239 237 233 231 230 227 220 216 213 212 190 173 168 164 155 170 190 191 182
357 353 348 342 341 341 334 323 315 309 301 294 286 279 276 266 259 255 250 247 245 244 241 238 233 233 233 228 227 224 218 214 210 205 201 181 169 162 160 188 190 190 177
359 355 349 355 347 339 333 330 319 311 303 292 281 273 268 263 255 250 244 242 238 235 235 229 231 229 229 228 224 219 215 210 208 202 200 193 176 164 180 189 188 187 179
356 351 358 357 331 310 323 340 340 328 318 304 284 267 260 254 249 244 239 237 230 226 225 226 223 226 224 224 221 215 210 206 205 199 198 193 166 163 185 188 185 180 180
7 16 5 4 359 3 6 3 356 0 341 319 281 264 251 251 246 237 234 231 226 223 221 223 221 221 221 220 218 211 206 203 201 196 194 195 172 162 186 187 181 179 178
15 11 10 4 8 12 12 14 2 304 186 154 297 266 255 248 240 232 224 220 220 219 216 216 218 219 216 214 210 206 203 203 198 197 198 198 175 175 186 186 180 177 173
26 18 14 14 15 21 24 22 44 76 131 170 184 282 251 240 235 219 215 214 214 214 213 208 212 213 209 208 202 197 198 199 197 196 198 187 167 184 185 183 178 176 173
28 19 15 9 10 20 22 50 64 77 119 153 174 183 197 207 206 205 207 206 205 206 207 204 204 207 205 201 195 194 191 191 192 194 195 181 183 184 182 180 177 175 173
19 25 27 28 30 37 51 61 68 74 96 130 167 186 183 193 195 196 197 199 198 197 198 198 197 197 198 193 191 190 188 185 184 182 181 180 181 182 180 179 177 176 176
38 30 25 40 44 52 55 63 64 72 83 101 133 172 169 173 188 192 192 191 190 189 190 191 191 192 188 185 184 182 179 179 178 179 176 177 179 182 184 182 183 180 182
46 25 34 42 46 50 50 62 71 70 85 98 111 137 150 161 164 171 178 183 185 185 185 186 186 184 183 183 182 180 178 177 176 179 168 171 175 179 186 189 186 182 184
54 26 35 41 47 46 47 58 71 85 89 99 110 123 138 150 162 169 173 177 182 187 185 183 179 179 180 181 179 175 180 174 170 165 159 162 171 174 180 183 184 183 186
55 45 42 42 48 50 45 60 69 81 93 99 108 121 131 141 151 159 164 169 174 177 178 179 180 178 179 178 172 178 170 165 165 165 158 167 173 173 172 170 176 186 189
55 54 51 50 51 57 52 60 72 81 92 96 104 116 127 137 146 152 154 157 163 169 175 175 178 183 188 171 169 165 168 167 170 169 173 171 181 170 173 177 182 169 179
65 65 57 54 54 53 53 57 74 83 92 100 102 106 117 129 135 140 147 153 155 160 162 164 167 157 153 162 166 164 169 165 164 168 182 177 182 183 188 198 196 202 194